Content
SEND FEEDBACK

Daily
Averages
Monthly
Summary
Kenya

WAA, KENYA


Home > Africa > Kenya
Elevation: 180 feet     Latitude: 04 01N     Longitude: 039 37E

WEATHER
 
SELECT A DAY
Number of Records: 131,574;   Date Range: 7/1/96 - 9/29/14
 
SHARE

PRINT THIS DATA

[ ← Previous Day ]
WEATHER ALMANAC - JANUARY 31, 2013
[ Next Day → ]
[ °C ]   °F
Weather ElementAverageHighLow
Temperature81.9 °F89.6 °F (12:00 pm)75.2 °F (7:00 am)
Dewpoint72.5 °F74 °F (9:00 pm)71.6 °F (3:30 am)
Humidity72.8 %89 % (7:00 am)51 % (3:00 pm)
Barometer29.79 in29.86 in (11:00 pm)29.71 in (5:00 pm)
Wind Speed11.3 mph25.3 mph (3:00 pm)
Weather ElementAverage
Visibility8.8 mi
Wind DirectionENE (58.9 °)

Weather ElementTotal
Precipitation---
Cooling Degree Days17.4 (Base 65)
Growing Degree Days32.4 (Base 50)
Averaged from 20 records on January 31, 2013
WEATHER CONDITIONS BREAKOUT
WIND DIRECTION BREAKOUT
WEATHER BY HOUR - JANUARY 31, 2013
[ °C ]   °F
Local TimeTemperatureDewpointHumidityBarometerVisibilityWind DirectionWind SpeedGust SpeedPrecipitationEventsConditions
3:00 AM77.0 °F72.0 °F80 %29.79 in19.0 miCalmScattered Clouds
3:30 AM77.0 °F71.6 °F83 %29.77 in6.2 miCalmPartly Cloudy
5:00 AM77.0 °F71.6 °F83 %29.77 in6.2 miCalmPartly Cloudy
6:00 AM77.0 °F71.6 °F83 %29.80 in6.2 miCalmScattered Clouds
7:00 AM75.2 °F71.6 °F89 %29.80 in6.2 miNNW (330°)4.6 mphScattered Clouds
9:00 AM80.6 °F71.6 °F74 %29.83 in6.2 miEast (90°)11.5 mphMostly Cloudy
9:00 AM81.0 °F72.0 °F67 %29.85 in19.0 miEast (90°)11.5 mphMostly Cloudy
11:00 AM87.8 °F71.6 °F58 %29.83 in6.2 miNE (40°)11.5 mphMostly Cloudy
12:00 PM89.6 °F71.6 °F55 %29.80 in6.2 miNNE (30°)12.7 mphMostly Cloudy
1:00 PM89.6 °F73.4 °F59 %29.77 in6.2 miENE (60°)13.8 mphMostly Cloudy
2:00 PM87.8 °F71.6 °F58 %29.74 in6.2 miENE (60°)18.4 mphScattered Clouds
3:00 PM88.0 °F72.0 °F51 %29.72 in19.0 miENE (60°)25.3 mphScattered Clouds
5:00 PM86.0 °F73.4 °F66 %29.71 in6.2 miENE (60°)20.7 mphPartly Cloudy
6:00 PM84.2 °F73.4 °F70 %29.74 in6.2 miENE (60°)15.0 mphMostly Cloudy
7:00 PM80.6 °F73.4 °F79 %29.77 in6.2 miNNE (30°)11.5 mphScattered Clouds
8:00 PM80.6 °F73.4 °F79 %29.77 in6.2 miENE (60°)11.5 mphMostly Cloudy
9:00 PM80.0 °F74.0 °F76 %29.80 in19.0 miNNE (30°)19.6 mphScattered Clouds
9:00 PM80.6 °F73.4 °F79 %29.80 in6.2 miNNE (30°)19.6 mphPartly Cloudy
10:00 PM78.8 °F73.4 °F83 %29.83 in6.2 miNNE (30°)12.7 mphPartly Cloudy
11:00 PM78.8 °F73.4 °F83 %29.86 in6.2 miENE (60°)5.8 mphMostly Cloudy
Hourly data recorded from HKMO, located miles away from Waa, Kenya







STORIES FROM OUR PARTNERS